Карточка аэропорта URKA

Внимание!
Информация на этой странице в стадии наполнения.
Если вы не увидели какой-то информации, или заметили неточность - пожалуйста сообщите нам!
Спасибо!
Команда RU-STAFF
Название аэропортаВитязево
Название аэропорта (англ.)Vityazevo
Превышение176 ft. (53.6 m.)
Координаты45°0.13200000000012', 37°20.832'
Высота перехода4000 ft
Эшелон переходаFL50 (QNH >= 1013); FL60 (QNH 977-1012); FL70 (QNH < 977)
Коды ответчика1040-1047
Зона ОрВДРостов-на-Дону РПИ (URRV)
Данные METARURKA 122330Z 17003MPS 8000 ///015 BKN/// 20/20 Q1012 R21/010070 TEMPO 0500 FG SCT002 RMK QFE754/1006
Проноз погоды (TAF)URKA 121958Z 1221/1321 24003G08MPS 9999 SCT016 TEMPO 1306/1315 27005MPS SCT020CB PROB40 1306/1315 -TSRA BKN020CB BECMG 1315/1317 30003G08MPS
NOTAMshow/hide NOTAM
AWOS   TABLE

Информация о ВПП

ВПП Длина ВПП (м.) Покрытие Курс ВПП Частота ILS
222500Цементобетон216 
042500Цементобетон36109.1

Диспетчерские позиции

Позывной Наименование органа УВД Частота
URKA_R_APPАнапа-Круг118.7
URKAFM1119,0
URKA_GNDАнапа-Руление119.0
URKA_TWRАнапа-Старт119.8



Спутниковое изображение